CST,Max TemperatureF,Mean TemperatureF,Min TemperatureF,Max Dew PointF,MeanDew PointF,Min DewpointF,Max Humidity, Mean Humidity, Min Humidity, Max Sea Level PressureIn, Mean Sea Level PressureIn, Min Sea Level PressureIn, Max VisibilityMiles, Mean VisibilityMiles, Min VisibilityMiles, Max Wind SpeedMPH, Mean Wind SpeedMPH, Max Gust SpeedMPH,PrecipitationIn, CloudCover, Events, WindDirDegrees
2012-12-1,39,36,32,36,32,28,93,87,79,30.01,29.80,29.70,4,2,1,15,9,23,0.00,8,,188
2012-12-2,46,38,32,37,32,28,93,87,71,29.99,29.88,29.70,8,2,0,22,4,31,0.00,7,Fog,175
2012-12-3,50,44,33,45,38,18,93,73,51,29.89,29.61,29.49,10,7,2,21,17,33,0.00,5,,226
2012-12-4,30,23,15,16,9,6,77,59,44,30.45,30.21,29.91,10,10,10,16,11,24,0.00,0,,315
2012-12-5,39,24,12,23,13,8,81,59,45,30.45,30.16,29.80,10,10,10,17,6,29,0.00,1,,154
2012-12-6,41,31,21,29,23,16,78,68,51,30.03,29.87,29.74,10,10,10,16,12,26,0.00,4,Rain,275
2012-12-7,25,22,19,18,15,11,86,73,59,30.12,30.06,29.98,10,10,7,9,3,,0.00,5,Snow,342
2012-12-8,28,24,19,22,17,10,81,74,68,30.11,30.05,29.97,10,8,2,7,4,,0.00,7,Snow,88
2012-12-9,28,18,7,25,19,1,86,81,73,30.09,30.02,29.96,10,2,0,17,9,26,0.00,8,Fog-Snow,33
2012-12-10,12,4,-5,4,-3,-12,84,75,67,30.07,29.97,29.85,10,8,1,15,6,,0.00,2,Snow,287
2012-12-11,12,2,-7,4,0,-12,80,75,64,30.05,29.85,29.72,10,7,2,10,6,,0.00,6,Snow,246
2012-12-12,30,13,-4,23,13,-11,81,74,66,30.04,29.92,29.84,10,8,6,9,3,,0.00,4,,147
2012-12-13,27,15,3,21,16,-1,86,79,65,30.19,30.04,29.93,10,4,0,13,5,,0.01,5,Fog-Snow,14
2012-12-14,28,16,3,22,12,-3,88,76,69,30.18,30.05,29.84,9,7,5,12,2,17,0.00,0,,111
2012-12-15,35,32,30,32,30,23,89,86,75,29.81,29.61,29.53,9,2,0,12,5,,0.51,8,Fog-Rain-Snow,24
2012-12-16,34,26,17,31,18,12,93,84,79,29.85,29.75,29.61,10,6,2,16,11,20,0.00,8,,330
2012-12-17,21,20,19,18,17,15,93,86,81,29.84,29.78,29.71,10,8,2,7,4,,0.00,8,,325
2012-12-18,27,24,21,21,19,16,88,83,78,29.81,29.73,29.65,8,4,1,7,1,,0.00,8,Snow,164
2012-12-19,27,23,18,23,19,13,93,84,78,30.08,29.90,29.76,9,4,0,9,6,,0.00,5,Fog,199
2012-12-20,21,14,7,17,11,1,85,76,68,30.18,30.03,29.94,10,7,1,20,9,25,0.00,6,Snow,342
2012-12-21,18,10,3,7,1,-3,80,75,62,30.34,30.27,30.19,10,9,6,10,6,,0.00,0,,340
2012-12-22,23,12,1,14,6,-4,87,75,65,30.20,30.11,30.03,9,8,4,16,4,23,0.00,2,Snow,356
2012-12-23,17,13,9,8,5,3,77,72,62,30.22,30.18,30.12,10,10,5,13,8,17,0.00,5,,16
2012-12-24,14,7,-2,7,-1,-9,79,72,63,30.40,30.20,30.03,10,8,2,13,8,,0.00,3,Snow,345
2012-12-25,7,0,-8,-4,-9,-15,79,72,61,30.56,30.50,30.40,10,10,8,10,5,,0.00,0,,307
2012-12-26,12,6,0,3,-2,-7,80,73,62,30.48,30.39,30.32,10,9,2,5,1,,0.00,6,Snow,332
2012-12-27,21,13,5,14,9,0,84,76,63,30.33,30.24,30.14,10,7,2,4,1,,0.00,7,Snow,30
2012-12-28,23,16,9,16,12,4,92,79,68,30.20,30.10,30.01,10,4,2,6,1,,0.00,8,Snow,328
2012-12-29,19,10,0,11,5,-6,81,75,64,30.19,30.08,29.99,10,6,2,12,6,,0.00,6,Snow,261
2012-12-30,19,8,-2,11,2,-9,84,74,65,30.21,30.03,29.87,9,6,2,17,4,28,0.00,2,,216
2012-12-31,14,2,-11,6,-6,-19,79,67,53,30.33,30.22,29.99,10,10,7,17,9,26,0.00,1,,323